Location: Blandford
(50.8667°N, 2.1667°W)
Time: 17:27:16
(UTC+00:00)

USA 234 - Pass Details

Date: 09 April 2020
Orbit: 1102 x 1106 km, 123.0° (Epoch: 14 May)

Event Time Altitude Azimuth Distance (km) Brightness Sun altitude
Rises 19:52:35 0° 63° (ENE) 3,926 5.8 -9.4°
Reaches altitude 10° 19:56:06 10° 82° (E) 2,964 5.0 -9.9°
Maximum altitude 20:00:16 18° 123° (ESE) 2,437 4.4 -10.5°
Drops below altitude 10° 20:04:25 10° 163° (SSE) 2,955 5.1 -11.0°
Sets 20:07:53 0° 182° (S) 3,909 5.9 -11.5°
